AAL2229 KLAX-KLAS

Flight info

Callsign AAL2229
Flight time N/A
Altitude 29000
Route ORCKA5 MISEN RNDRZ4
Aircraft B738/M-SDE2E3FGHIRWXY/LB1

Departure

Time 2026-04-23 15:40
Airport Los Angeles International Airport (KLAX)

Arrival

Time N/A
Airport Harry Reid International Airport (KLAS)
Time Latitude Longitude Altitude Speed Heading
2026-04-23 15:29 33.94495 -118.41257 121 ft 0 kts 173°
2026-04-23 15:32 33.94490 -118.41256 121 ft 4 kts 173°
2026-04-23 15:32 33.94394 -118.41241 121 ft 17 kts 174°
2026-04-23 15:33 33.94288 -118.41226 122 ft 13 kts 172°
2026-04-23 15:33 33.94208 -118.41214 123 ft 12 kts 173°
2026-04-23 15:33 33.94093 -118.41198 123 ft 16 kts 173°
2026-04-23 15:33 33.93994 -118.41183 124 ft 12 kts 173°
2026-04-23 15:34 33.93916 -118.41171 126 ft 10 kts 173°
2026-04-23 15:34 33.93818 -118.41157 127 ft 14 kts 173°
2026-04-23 15:34 33.93770 -118.41112 127 ft 7 kts 97°
2026-04-23 15:34 33.93778 -118.41029 127 ft 5 kts 82°
2026-04-23 15:35 33.93780 -118.40983 127 ft 6 kts 84°
2026-04-23 15:35 33.93785 -118.40927 127 ft 10 kts 82°
2026-04-23 15:35 33.93794 -118.40844 127 ft 9 kts 83°
2026-04-23 15:35 33.93816 -118.40729 127 ft 11 kts 89°
2026-04-23 15:36 33.93818 -118.40597 126 ft 19 kts 84°
2026-04-23 15:36 33.93837 -118.40405 122 ft 28 kts 83°
2026-04-23 15:36 33.93863 -118.40164 121 ft 28 kts 83°
2026-04-23 15:36 33.93887 -118.39919 116 ft 29 kts 82°
2026-04-23 15:37 33.93912 -118.39672 111 ft 30 kts 82°
2026-04-23 15:37 33.93937 -118.39424 110 ft 29 kts 82°
2026-04-23 15:37 33.93955 -118.39256 108 ft 29 kts 82°
2026-04-23 15:37 33.93988 -118.38935 105 ft 28 kts 82°
2026-04-23 15:38 33.93949 -118.38821 105 ft 12 kts 172°
2026-04-23 15:38 33.93902 -118.38842 105 ft 0 kts 270°
2026-04-23 15:38 33.93902 -118.38843 105 ft 0 kts 262°
2026-04-23 15:39 33.93900 -118.38853 105 ft 5 kts 262°
2026-04-23 15:39 33.93861 -118.39229 108 ft 84 kts 263°
2026-04-23 15:39 33.93760 -118.40205 121 ft 148 kts 262°
2026-04-23 15:39 33.93613 -118.41585 493 ft 170 kts 262°
2026-04-23 15:40 33.93467 -118.42936 1364 ft 165 kts 264°
2026-04-23 15:40 33.93339 -118.44302 2085 ft 169 kts 265°
2026-04-23 15:40 33.93206 -118.45784 2615 ft 187 kts 263°
2026-04-23 15:40 33.92891 -118.47303 3305 ft 195 kts 247°
2026-04-23 15:41 33.92297 -118.48794 4082 ft 197 kts 248°
2026-04-23 15:41 33.91763 -118.50281 4910 ft 194 kts 248°
2026-04-23 15:41 33.91206 -118.51804 5368 ft 213 kts 248°
2026-04-23 15:41 33.90563 -118.53532 5810 ft 233 kts 248°
2026-04-23 15:42 33.89818 -118.55318 6331 ft 252 kts 239°
2026-04-23 15:42 33.88676 -118.57014 6919 ft 269 kts 227°
2026-04-23 15:42 33.87164 -118.58439 7620 ft 282 kts 211°
2026-04-23 15:42 33.85259 -118.59010 8286 ft 295 kts 179°
2026-04-23 15:43 33.83200 -118.58421 8806 ft 314 kts 153°
2026-04-23 15:43 33.81659 -118.56606 9488 ft 319 kts 121°
2026-04-23 15:43 33.80996 -118.54022 9783 ft 336 kts 88°
2026-04-23 15:43 33.81512 -118.51284 10280 ft 341 kts 62°
2026-04-23 15:44 33.82916 -118.48991 10638 ft 350 kts 39°
2026-04-23 15:44 33.84894 -118.47212 10988 ft 360 kts 26°
2026-04-23 15:44 33.87130 -118.45773 11386 ft 372 kts 24°
2026-04-23 15:44 33.89485 -118.44299 11778 ft 383 kts 23°
2026-04-23 15:45 33.91851 -118.42825 12498 ft 385 kts 23°
2026-04-23 15:45 33.94224 -118.41218 12840 ft 401 kts 31°
2026-04-23 15:45 33.96273 -118.38899 13416 ft 412 kts 46°
2026-04-23 15:45 33.98003 -118.36106 14013 ft 418 kts 51°
2026-04-23 15:46 33.99604 -118.33172 14494 ft 425 kts 53°
2026-04-23 15:46 34.01165 -118.30154 15084 ft 427 kts 54°
2026-04-23 15:46 34.02671 -118.27104 15851 ft 424 kts 55°
2026-04-23 15:46 34.04252 -118.24069 15526 ft 434 kts 49°
2026-04-23 15:47 34.06006 -118.21268 15745 ft 421 kts 47°
2026-04-23 15:47 34.07849 -118.18636 16392 ft 400 kts 43°